Regional Weather Roundup
Issued by NWS Wakefield, VA

Home | Current Version | Previous Version | Text Only | Print | Product List | Glossary On
Versions: 1 2 3 4 5 6 7 8 9 10 11 12 13 14 15 16 17 18 19 20 21 22 23 24 25 26 27 28 29 30 31 32 33 34 35 36 37 38 39 40 41 42 43 44 45 46 47 48 49 50
747
ASUS41 KAKQ 180015
RWRAKQ

REGIONAL WEATHER ROUNDUP
NATIONAL WEATHER SERVICE WAKEFIELD VA
700 PM EST TUE JAN 17 2017

Note: "fair" indicates few or no clouds below 12,000 feet with no
significant weather and/or obstructions to visibility. * = Denotes
station may not report precipitation (e.g., rain,snow,etc.),
thunder or fog.

VAZ042-051-052>054-056-180100-
NORTHERN VIRGINIA

CITY           SKY/WX    TMP DP  RH WIND       PRES   REMARKS
WASH NATIONAL  CLOUDY    51  51 100 S3        29.96S
DULLES         CLOUDY    51  49  92 CALM      29.95S FOG
FORT BELVOIR   CLOUDY    51  50  95 CALM      29.95F
QUANTICO       CLOUDY    56  54  93 SW9G17    29.96F
FREDERICKSBRG* CLOUDY    56  56  98 SW10G17   29.96F
STAFFORD*      CLOUDY    55  54  97 SW5G16    30.00F
WARRENTON      CLOUDY    55  50  84 SW8       29.95S
CULPEPER*      CLOUDY    55  52  92 SW10      29.96F
MANASSAS*      CLOUDY   N/A N/A N/A SW5       29.96F FOG
LEESBURG*      FOG       48  48 100 CALM      29.97R VSB 3/4
WINCHESTER     FOG       41  41 100 N3        29.93S VSB 1/4
FRONT ROYAL*   FAIR      46  46 100 NE5       29.91R
LURAY*         FAIR      57  54  88 SW12      29.93R
$$

VAZ048-049-060>072-079>083-180100-
CENTRAL AND SOUTH CENTRAL VIRGINIA

CITY           SKY/WX    TMP DP  RH WIND       PRES   REMARKS
RICHMOND       CLOUDY    56  53  90 SW10      30.02F
CHESTERFIELD*  MOCLDY    57  39  51 SW5       30.04S
PETERSBURG*    CLOUDY    55  52  88 SW6       30.04S
HANOVER        CLOUDY    56  51  84 S10       30.03S
TAPPAHANNOCK*  CLOUDY    56  51  83 S6        30.01S
QUINTON*       MOCLDY    55  55 100 S9        30.01F
CHARLOTTSVILLE MOCLDY    53  50  89 S8        29.97F
GORDONSVILLE*  CLOUDY    54  52  94 SW13G21   29.96F
ORANGE*          N/A     55  54  94 S6G17     29.98F
LOUISA*        CLOUDY    59  55  88 SW8       29.98S
BUMPASS*       CLOUDY    56  54  94 SW9G16    29.99S
FARMVILLE*     CLOUDY    58  55  91 SW10G18   30.02R
CREWE*         CLOUDY    56  56 100 SW6       30.03R
FORT PICKETT*  CLOUDY    56  52  88 SW10      30.04R
CHASE CITY*    CLOUDY    55  53  95 SW5       30.06R
CLARKSVILLE*   CLOUDY    55  55 100 SW8       30.06R
SOUTH HILL*    CLOUDY    56  55  99 SW13      30.11S
LAWRENCEVILLE* FAIR      57  54  89 MISG      30.05S
EMPORIA*       CLOUDY    55  52  88 S5        30.06F
$$

VAZ088>098-180100-
SOUTHEAST VIRGINIA

CITY           SKY/WX    TMP DP  RH WIND       PRES   REMARKS
NORFOLK        MOCLDY    59  53  80 SW14      30.03F
VIRGINIA BEACH MOCLDY    59  52  77 SW13      30.04F
NORFOLK NAVAL    N/A    N/A N/A N/A MISG        N/A
WEST POINT*    MOCLDY    55  52  89 S5        30.03F
SALUDA*        FAIR      56  54  92 SW7       30.00F
NEWPORT NEWS   MOCLDY    56  53  90 SW7       30.04F
LANGLEY AFB    CLOUDY    58  55  89 SW12      30.03F
FORT EUSTIS    CLOUDY    56  52  87 S5        30.01F
WILLIAMSBURG*  CLOUDY    57  54  88 CALM      30.04F
HR EXEC AP*    FAIR      57  52  82 SW13      30.03F
FRANKLIN*      CLOUDY    57  53  84 S7        30.05F
US460-WAKEFLD  CLOUDY    58  54  86 SW7       30.04S
$$

VAZ020-022-025-037-045-180100-
WEST CENTRAL AND SOUTHWEST VIRGINIA

CITY           SKY/WX    TMP DP  RH WIND       PRES   REMARKS
STAUNTON*      PTCLDY    52  49  89 S7        29.97F
WAYNESBORO*    FAIR      56  50  81 SW9       29.96F
HOT SPRINGS VA LGT RAIN  54  54 100 W20G29    29.99S VSB 1/2
LYNCHBURG      CLOUDY    54  52  93 SW9       30.04R
DANVILLE       CLOUDY    54  54 100 SW6       30.07S
SOUTH BOSTON*  CLOUDY    56  55  95 SW7       30.07R
MARTINSVILLE   CLOUDY    53  51  95 CALM      30.10S FOG
ROANOKE        CLOUDY    52  50  93 CALM      30.05R
BLACKSBURG     CLOUDY    54  52  92 CALM      30.07S
DUBLIN*        CLOUDY    56  54  92 SW8       30.06S
MARION*        DRIZZLE   55  54  95 W16       30.08F
HILLSVILLE*    CLOUDY    52  52 100 CALM      30.06S
RICHLANDS*     DRIZZLE  N/A N/A N/A SW12G23   30.05F
WISE*          LGT RAIN  59  59 100 SW20G28   30.05S
ABINGDON*      CLOUDY    57  57 100 W6        30.08R
$$

MDZ021>025-VAZ099-100-180100-
SOUTHERN MARYLAND AND THE DELMARVA PENINSULA

CITY           SKY/WX    TMP DP  RH WIND       PRES   REMARKS
PATUXENT RIVER CLOUDY    54  51  90 S13       29.95F
BAY BRIDGE APT CLOUDY    45  45 100 CALM      29.97S FOG
LEONARDTOWN    CLOUDY    54  50  87 SW10G16   29.98F
DOVER          CLOUDY    44  44 100 E6        29.97F FOG
GEORGETOWN     CLOUDY    49  47  93 SE5       29.99F FOG
EASTON         CLOUDY    50  46  87 S6        29.99F FOG
CAMBRIDGE      MOCLDY    46  45  93 S7        29.96F
SALISBURY      CLOUDY    53  51  93 S8        29.99F
OCEAN CITY     CLOUDY    47  47 100 SW12G21   30.01F
WALLOPS ISLAND CLOUDY    47  47 100 S10       30.02F
ACCOMACK*      CLOUDY    53  51  92 SW5       30.02F
$$

NCZ012>017-030>032-180100-
NORTH CENTRAL AND EASTERN NORTH CAROLINA

CITY           SKY/WX    TMP DP  RH WIND       PRES   REMARKS
ROANOKE RAPIDS LGT RAIN  55  54  94 S12       30.06F
RALEIGH        CLOUDY    60  56  86 SW8       30.09F
ELIZABETH CITY MOCLDY    58  54  86 S7        30.09R
AHOSKIE*       LGT RAIN  56  54  91 S5        30.07F
EDENTON*       MOCLDY    60  56  88 CALM      30.10F
CURRITUCK*     MOCLDY    58  56  95 S6        30.09S
KILL DEVIL HLS NOT AVBL
MANTEO         MOCLDY    53  51  93 S9        30.11F
CAPE HATTERAS  CLOUDY    60  57  89 SW9       30.13F
TARBORO*       NOT AVBL
GOLDSBORO      MOCLDY    61  59  96 S6        30.10F
WASHINGTON     MOCLDY    61  55  81 SW7       30.11S
GREENVILLE     CLOUDY    61  55  82 S8        30.12S
NEW BERN       PTCLDY    62  56  80 S7        30.13F
WILMINGTON     PTCLDY    62  57  83 S5        30.15F
$$

VAZ048-180100-
ELSEWHERE

CITY           SKY/WX    TMP DP  RH WIND       PRES   REMARKS
HARRISBURG PA  CLOUDY    40  40 100 SE3       29.97F FOG
BALTIMORE      DRIZZLE   44  44 100 N3        29.97F FOG
ANNAPOLIS      FOG       44  42  93 CALM      29.97S VSB 1/4
ANDREWS AFB    CLOUDY    51  50  97 SW8       29.94S
PHILADELPHIA   LGT RAIN  43  42  97 E5        30.01F FOG
HENDERSON NC   MOCLDY    54  52  95 SW9       30.07S
GREENSBORO     LGT RAIN  57  56  96 SW9       30.09R
ROCKY MOUNT    MOCLDY    58  55  90 S9        30.09F
$$

VAZ100-180100-
MARINE

STATION/POSITION TIME  TEMP    WIND        PRES    WAVE   SWELL
                       AIR SEA DIR/SP/G            HT/PER HT/PER
                 (UTC) (F)     (DEG/KT/KT) (MB)    (FT/S) (FT/S)
CAPE MAY NJ      2342   45 40  150/ 10/ 12 1015.7F
LEWES DE         2342   46 41  150/  5/  7 1015.7F
OCEAN-CITY-INLET 2342   45 43  220/ 12/ 14 1016.8F
WACHAPREAGUE VA  2348   49 47  210/  8/ 10 1016.7F
THOMAS POINT MD  0000   42 38  240/  3/  3   N/A
GOOSES REEF MD   2350   42     180/ 10/ 12 1015.2F
COVE POINT MD    2348   43     190/ 11/ 11 1015.0F
SOLOMONS ISLAND  2348      41  210/ 12/ 15   N/A
BISHOPS HEAD MD  2342   47 41  180/ 10/ 11 1015.6F
PINEY POINT MD   2348          240/ 10/ 11   N/A
POTOMAC MD       2350   50     230/ 10/ 12 1014.5F
CAMBRIDGE MD     2342   49 39  140/  4/  5 1014.1F
LEWISETTA VA     2348   55 43  240/ 14/ 17 1014.7F
RAPPAHANNOCK LGT 2348          190/ 14/ 15 1017.1F
STINGRAY PT      2350   45     170/  6/  6 1016.8F
YORK RVR RNG VA  2348   53     220/ 10/ 11 1016.2F
YORKTOWN VA      2348   57 43  220/  7/ 10 1016.4F
JAMESTOWN VA     2350   55     210/  2/  4   N/A
DOMINION TERM VA 2348   52     200/  4/  5 1017.1F
KIPTOPEKE VA     2336      43  190/ 10/ 11   N/A
CHES BAY BRIDGE  2336   57 43  220/ 15/ 16 1017.2F
CAPE HENRY VA    2336   59     200/ 10/ 15   N/A
WILLOUBY STN VA  2348   58     210/ 13/ 16 1017.8F
S CRANEY ISL VA  2348   58     200/  7/ 12 1017.1F
CAPE HENRY BUOY  2342      47                N/A     2/ 3
OFFSHORE WE BUOY 2351      49                N/A     3/ 3
64NM E OF VA BCH 2350   58 56  210/ 16/ 17 1018.2F   3/ 8   2/ 8
DUCK PIER NC     2336   56 44  190/ 12/ 12 1018.2F
44100 DUCK FRF   2335      47                N/A     2/ 9
44056 DUCK FRF   2330      45                N/A     2/10
OREGON INLET NC  2336   51 48  180/  9/ 10 1019.4F
HATTERAS NC      2336   60 53  220/  7/  9 1020.1F
DIAMOND SHLS NC  2350   70 73  240/ 17/ 21 1020.3F   3/10   2/10
CAPE LOOKOUT NC  2300   64     210/ 10/ 13 1021.2S
$$




USA.gov is the U.S. government's official web portal to all federal, state and local government web resources and services.